Springfield, MO

10:09 PM CST on February 12, 2016 (GMT -0600)
Springfield-Branson Regional

Weather History for KSGF - December, 2014

Change the Weather History Date:

Saturday, December 6, 2014

  Actual Average Record
Temperature  
Mean Temperature 41 °F 37 °F  
Max Temperature 45 °F 47 °F 72 °F (1939)
Min Temperature 37 °F 27 °F -1 °F (1950)
Degree Days  
Heating Degree Days 24 28  
Month to date heating degree days 162 162  
Since 1 July heating degree days 1112 1041  
Cooling Degree Days 0 0  
Month to date cooling degree days 0 0  
Year to date cooling degree days 1470 1389  
Moisture  
Dew Point 39 °F    
Average Humidity 93    
Maximum Humidity 100    
Minimum Humidity 85    
Precipitation  
Precipitation 0.00 in 0.12 in 1.66 in (1892)
Month to date precipitation 0.48 0.70  
Year to date precipitation 37.30 43.23  
Snow  
Snow 0.00 in - - ()
Month to date snowfall T  
Since 1 July snowfall 1.7  
Snow Depth 0.00 in    
Sea Level Pressure  
Sea Level Pressure 30.43 in    
Wind  
Wind Speed 10 mph (NNE)    
Max Wind Speed 16 mph    
Max Gust Speed 19 mph    
Visibility 4 miles    
Events Fog    
T = Trace of Precipitation, MM = Missing Value Source: NWS Daily Summary

Daily Weather History Graph

Daily Weather History Graph

Search for Another Location

Airport or City:

Trip Planner

Search our weather history database for the weather conditions in past years. The results will help you decide how hot, cold, wet, or windy it might be!

Date:

Astronomy

Dec. 06, 2014 Rise Set
Actual Time 7:13 AM CST 4:55 PM CST
Civil Twilight 6:44 AM CST 5:24 PM CST
Nautical Twilight 6:11 AM CST 5:57 PM CST
Astronomical Twilight 5:40 AM CST 6:28 PM CST
Moon 5:31 PM CST (12/6) 7:05 AM CST (12/6)
Length of Visible Light 10h 40m
Length of Day
9h 42m
Full, 100% of the Moon is Illuminated
Dec 6
Full
Dec 14
Last Quarter
Dec 21
New
Dec 28
First Quarter
Jan 4
Full

Hourly Weather History & Observations

Time (CST) Temp. Windchill Dew Point Humidity Pressure Visibility Wind Dir Wind Speed Gust Speed Precip Events Conditions
12:52 AM 45.0 °F 39.7 °F 44.1 °F 97% 30.23 in 4.0 mi NNW 10.4 mph - N/A   Overcast
1:11 AM 45.0 °F 39.7 °F 44.1 °F 97% 30.22 in 2.0 mi North 10.4 mph - N/A   Overcast
1:52 AM 44.1 °F 38.1 °F 43.0 °F 96% 30.26 in 2.0 mi North 11.5 mph - N/A   Overcast
1:54 AM 44.1 °F 37.7 °F 43.0 °F 96% 30.25 in 0.5 mi North 12.7 mph - N/A Fog Fog
2:52 AM 44.1 °F 37.4 °F 42.1 °F 93% 30.28 in 0.5 mi North 13.8 mph - N/A Fog Fog
2:54 AM 44.1 °F 38.1 °F 42.1 °F 93% 30.28 in 2.0 mi North 11.5 mph - N/A   Overcast
3:18 AM 43.0 °F 36.4 °F 42.1 °F 97% 30.29 in 1.5 mi North 12.7 mph - N/A   Overcast
3:52 AM 42.1 °F 34.9 °F 41.0 °F 96% 30.30 in 2.0 mi North 13.8 mph - N/A   Overcast
4:25 AM 42.1 °F 34.9 °F 41.0 °F 96% 30.31 in 1.5 mi North 13.8 mph - N/A   Overcast
4:50 AM 42.8 °F 37.5 °F 41.0 °F 93% 30.32 in 2.5 mi NNE 9.2 mph - N/A   Overcast
4:52 AM 42.1 °F 36.1 °F 41.0 °F 96% 30.32 in 2.5 mi North 10.4 mph - N/A   Overcast
5:52 AM 41.0 °F 33.5 °F 39.9 °F 96% 30.36 in 2.0 mi North 13.8 mph - N/A   Overcast
6:09 AM 41.0 °F 34.3 °F 39.0 °F 93% 30.37 in 5.0 mi NNW 11.5 mph - N/A   Overcast
6:52 AM 41.0 °F 33.9 °F 39.0 °F 93% 30.38 in 3.0 mi NNE 12.7 mph - N/A   Overcast
7:52 AM 39.9 °F 32.5 °F 39.0 °F 97% 30.42 in 3.0 mi NNE 12.7 mph - N/A   Overcast
8:52 AM 41.0 °F 34.3 °F 39.0 °F 93% 30.45 in 6.0 mi North 11.5 mph - N/A   Overcast
9:16 AM 39.9 °F 32.5 °F 39.0 °F 97% 30.45 in 2.0 mi NNW 12.7 mph - N/A   Overcast
9:52 AM 39.9 °F 32.5 °F 39.0 °F 97% 30.49 in 2.0 mi North 12.7 mph - N/A   Overcast
9:59 AM 39.9 °F 32.5 °F 39.0 °F 97% 30.47 in 1.5 mi North 12.7 mph - N/A   Overcast
10:09 AM 39.9 °F 32.9 °F 39.0 °F 97% 30.48 in 3.0 mi North 11.5 mph - N/A   Overcast
10:52 AM 39.9 °F 33.9 °F 39.0 °F 97% 30.49 in 5.0 mi North 9.2 mph - N/A   Overcast
11:31 AM 39.9 °F 34.5 °F 39.0 °F 97% 30.46 in 2.5 mi NNE 8.1 mph - N/A   Overcast
11:43 AM 39.9 °F 32.5 °F 39.0 °F 97% 30.46 in 4.0 mi NE 12.7 mph - N/A   Overcast
11:52 AM 39.9 °F 32.5 °F 39.0 °F 97% 30.48 in 2.5 mi NNE 12.7 mph - N/A   Overcast
11:59 AM 39.9 °F 33.4 °F 39.0 °F 97% 30.47 in 4.0 mi North 10.4 mph - N/A   Overcast
12:13 PM 39.9 °F 33.9 °F 37.9 °F 93% 30.47 in 2.5 mi NNE 9.2 mph - N/A   Overcast
12:22 PM 39.9 °F 33.9 °F 37.9 °F 93% 30.46 in 5.0 mi North 9.2 mph - N/A   Overcast
12:52 PM 39.9 °F 33.9 °F 39.0 °F 97% 30.48 in 1.8 mi North 9.2 mph - N/A   Overcast
1:05 PM 39.9 °F 34.5 °F 39.0 °F 97% 30.46 in 0.8 mi NE 8.1 mph - N/A   Overcast
1:33 PM 39.9 °F 33.4 °F 37.9 °F 93% 30.46 in 2.0 mi NNE 10.4 mph - N/A   Overcast
1:52 PM 39.9 °F 32.9 °F 37.9 °F 93% 30.48 in 2.0 mi NNE 11.5 mph - N/A   Overcast
1:59 PM 41.0 °F 34.7 °F 39.2 °F 93% 30.46 in 5.0 mi NE 10.4 mph - N/A   Overcast
2:52 PM 39.9 °F 34.5 °F 37.9 °F 93% 30.49 in 6.0 mi NE 8.1 mph - N/A   Overcast
2:54 PM 39.9 °F 34.5 °F 37.9 °F 93% 30.47 in 3.0 mi NE 8.1 mph - N/A   Overcast
3:34 PM 39.9 °F 33.9 °F 37.0 °F 89% 30.48 in 3.0 mi NE 9.2 mph - N/A   Overcast
3:52 PM 39.9 °F 34.5 °F 37.0 °F 89% 30.51 in 3.0 mi ENE 8.1 mph - N/A   Overcast
4:16 PM 39.9 °F 34.5 °F 37.0 °F 89% 30.49 in 5.0 mi NE 8.1 mph - N/A   Overcast
4:52 PM 39.0 °F 33.4 °F 37.0 °F 93% 30.51 in 5.0 mi NNE 8.1 mph - N/A   Overcast
5:50 PM 39.2 °F 33.6 °F 37.4 °F 93% 30.49 in 7.0 mi NNE 8.1 mph - N/A   Overcast
5:52 PM 39.0 °F 32.3 °F 37.0 °F 93% 30.51 in 7.0 mi NNE 10.4 mph - N/A   Overcast
6:52 PM 39.0 °F 32.8 °F 36.0 °F 89% 30.53 in 8.0 mi NE 9.2 mph - N/A   Overcast
7:52 PM 37.9 °F 30.5 °F 35.1 °F 89% 30.54 in 7.0 mi ENE 11.5 mph - N/A   Overcast
8:52 PM 37.9 °F 31.5 °F 35.1 °F 89% 30.53 in 7.0 mi ENE 9.2 mph - N/A   Overcast
9:49 PM 37.4 °F 32.1 °F 35.6 °F 93% 30.51 in 5.0 mi East 6.9 mph - N/A   Overcast
9:52 PM 37.0 °F 32.4 °F 35.1 °F 93% 30.53 in 5.0 mi ENE 5.8 mph - N/A   Overcast
10:52 PM 37.0 °F 31.6 °F 35.1 °F 93% 30.53 in 8.0 mi East 6.9 mph - N/A   Overcast
11:52 PM 37.0 °F 30.4 °F 35.1 °F 93% 30.53 in 9.0 mi East 9.2 mph - N/A   Overcast